Weather History for Rochester, NH

Change the Weather History Date:

Thursday, November 28, 2013

  Actual Average (KSFM) Record (KSFM)
Temperature  
Mean Temperature 28 °F -  
Max Temperature 36 °F 41 °F 62 °F (2011)
Min Temperature 21 °F 24 °F 3 °F (1996)
Degree Days  
Heating Degree Days 36    
Moisture  
Dew Point 12 °F    
Average Humidity 51    
Maximum Humidity 70    
Minimum Humidity 34    
Precipitation  
Precipitation 0.00 in - - ()
Sea Level Pressure  
Sea Level Pressure 29.96 in    
Wind  
Wind Speed 11 mph (WNW)    
Max Wind Speed 17 mph    
Max Gust Speed 33 mph    
Visibility 10 miles    
Events      
Averages and records for this station are not official NWS values.
T = Trace of Precipitation, MM = Missing Value Source: NWS Daily Summary

Daily Weather History Graph

Daily Weather History Graph

Search for Another Location

Airport:

Trip Planner

Search our weather history database for the weather conditions in past years. The results will help you decide how hot, cold, wet, or windy it might be!

Date:

Astronomy

Nov. 28, 2013 Rise Set
Actual Time 6:52 AM EST 4:10 PM EST
Civil Twilight 6:21 AM EST 4:42 PM EST
Nautical Twilight 5:45 AM EST 5:17 PM EST
Astronomical Twilight 5:11 AM EST 5:51 PM EST
Moon 1:44 AM EST (11/28) 1:24 PM EST (11/28)
Length of Visible Light 10h 20m
Length of Day
9h 17m
Waning Crescent, 22% of the Moon is Illuminated
Nov 28
Waning Crescent
Dec 2
New
Dec 9
First Quarter
Dec 17
Full
Dec 25
Last Quarter

Hourly Weather History & Observations

Time (EST) Temp. Windchill Dew Point Humidity Pressure Visibility Wind Dir Wind Speed Gust Speed Precip Events Conditions
12:51 AM 36.0 °F 27.5 °F 27.0 °F 70% 29.39 in 10.0 mi WNW 12.7 mph 24.2 mph N/A   Scattered Clouds
1:21 AM 36.0 °F 27.5 °F 27.0 °F 70% 29.42 in 10.0 mi West 12.7 mph 19.6 mph N/A   Mostly Cloudy
1:51 AM 36.0 °F 28.0 °F 26.1 °F 67% 29.45 in 10.0 mi West 11.5 mph 21.9 mph N/A   Overcast
2:51 AM 36.0 °F 26.7 °F 24.1 °F 62% 29.49 in 10.0 mi West 15.0 mph 24.2 mph N/A   Overcast
3:51 AM 34.0 °F 27.2 °F 23.0 °F 64% 29.55 in 10.0 mi WNW 8.1 mph 16.1 mph N/A   Partly Cloudy
4:51 AM 34.0 °F 28.0 °F 23.0 °F 64% 29.61 in 10.0 mi Variable 6.9 mph 26.5 mph N/A   Mostly Cloudy
5:51 AM 32.0 °F 23.6 °F 19.0 °F 59% 29.69 in 10.0 mi West 10.4 mph 25.3 mph N/A   Overcast
6:51 AM 30.0 °F 21.1 °F 17.1 °F 59% 29.75 in 10.0 mi West 10.4 mph 19.6 mph N/A   Scattered Clouds
7:51 AM 28.9 °F 17.3 °F 15.1 °F 56% 29.83 in 10.0 mi WNW 16.1 mph 21.9 mph N/A   Clear
8:51 AM 28.9 °F 19.8 °F 14.0 °F 54% 29.89 in 10.0 mi West 10.4 mph 26.5 mph N/A   Clear
9:51 AM 30.0 °F 18.3 °F 12.0 °F 47% 29.96 in 10.0 mi WNW 17.3 mph 33.4 mph N/A   Clear
10:51 AM 30.0 °F 19.5 °F 10.0 °F 43% 29.99 in 10.0 mi WNW 13.8 mph 26.5 mph N/A   Clear
11:51 AM 28.9 °F 18.2 °F 8.1 °F 41% 30.02 in 10.0 mi West 13.8 mph 25.3 mph N/A   Clear
12:51 PM 30.0 °F 21.7 °F 7.0 °F 38% 30.06 in 10.0 mi WNW 9.2 mph 21.9 mph N/A   Clear
1:51 PM 28.0 °F 17.0 °F 5.0 °F 38% 30.08 in 10.0 mi WNW 13.8 mph 27.6 mph N/A   Clear
2:51 PM 28.0 °F 15.7 °F 3.0 °F 34% 30.11 in 10.0 mi WNW 17.3 mph 29.9 mph N/A   Clear
3:51 PM 27.0 °F 17.3 °F 3.9 °F 37% 30.17 in 10.0 mi WNW 10.4 mph 23.0 mph N/A   Clear
4:51 PM 26.1 °F 17.6 °F 5.0 °F 41% 30.21 in 10.0 mi West 8.1 mph - N/A   Clear
5:51 PM 25.0 °F 20.7 °F 5.0 °F 43% 30.26 in 10.0 mi Variable 3.5 mph - N/A   Clear
6:51 PM 25.0 °F - 6.1 °F 45% 30.30 in 10.0 mi Calm Calm - N/A   Clear
7:51 PM 24.1 °F 17.0 °F 5.0 °F 44% 30.32 in 10.0 mi WSW 5.8 mph - N/A   Clear
8:51 PM 23.0 °F 18.4 °F 5.0 °F 46% 30.35 in 10.0 mi Variable 3.5 mph - N/A   Clear
9:51 PM 23.0 °F - 5.0 °F 46% 30.37 in 10.0 mi Calm Calm - N/A   Clear
10:51 PM 21.9 °F 17.2 °F 5.0 °F 48% 30.39 in 10.0 mi Variable 3.5 mph - N/A   Clear
11:51 PM 21.0 °F 14.6 °F 6.1 °F 53% 30.40 in 10.0 mi West 4.6 mph - N/A   Clear